Location: Chrome
(40.5765°N, 74.2163°W)
Time: 03:23:03
(UTC+00:00)

SL-16 R/B - Pass Details

Date: 06 December 2019
Orbit: 840 x 849 km, 71.0° (Epoch: 27 January)

Event Time Altitude Azimuth Distance (km) Brightness Sun altitude
Rises 23:20:01 0° 184° (S) 3,386 5.6 -20.3°
Reaches altitude 10° 23:22:32 10° 178° (S) 2,457 4.7 -20.8°
Maximum altitude 23:27:53 46° 107° (ESE) 1,129 2.4 -21.8°
Enters shadow 23:28:16 45° 94° (E) 1,141 2.4 -21.8°
